Location: Czekanka
(50.4925°N, 19.2643°E)
Time: 12:34:16
(UTC+00:00)

Cosmos 1975 Rocket - Pass Details

Date: 15 June 2024
Orbit: 601 x 629 km, 82.5° (Epoch: 16 July)

Event Time Altitude Azimuth Distance (km) Brightness Sun altitude
Exits shadow 00:21:38 20° 208° (SSW) 1,409 4.2 -13.1°
Maximum altitude 00:24:29 60° 283° (WNW) 707 3.3 -12.9°
Drops below altitude 10° 00:28:52 10° 4° (N) 1,996 6.9 -12.6°
Sets 00:31:09 0° 8° (N) 2,911 8.1 -12.4°
